Flag for U.S.A. Weather past 2 weeks in Helena, Montana, U.S.A.

Now
87 °F

Sunny.


Feels Like: 84 °F
Forecast: 60 / 91 °F
Wind: 5 mph from South

Location: Helena Regional Airport

Current Time: Jul 30, 2014 at 7:57:37 PM

Latest Report: Jul 30, 2014 at 6:53 PM


Visibility: 10 mi

Pressure: 30.04 "Hg

Humidity: 18%

Dew point: 39 °F

Location of HelenaLocation

Historic Weather in Helena — Graph

°F

Helena temperature yesterday

Maximum temperature yesterday: 93 °F (at 3:53 PM)
Minimum temperature yesterday: 63 °F (at 5:53 AM)
Average temperature yesterday: 76 °F

Past Weeks' High & Low Weather Summary

 TemperatureHumidityPressure
High94 °F (Jul 17, 4:53 PM)93% (Jul 16, 12:53 AM)30.27 "Hg (Jul 16, 12:53 AM)
Low52 °F (Jul 27, 5:53 AM)11% (Jul 26, 1:53 PM)29.68 "Hg (Jul 17, 7:53 PM)
Average73 °F41%29.99 "Hg
* Reported Jul 15 5:53 PM — Jul 30 5:53 PM, Helena, Weather by CustomWeather, © 2014

Note: Actual official high and low records may vary slightly from our data, if they occured in-between our weather recording intervals... More about our weather records

Advertising

Helena weather history for previous 24 hours

 ConditionsComfort  
Time TempWeatherWind HumidityBarometerVisibility
5:53 PM
Jul 30
89 °FSunny.8 mph17%30.04 "Hg10 mi
4:53 PM86 °FSunny.8 mph21%30.06 "Hg10 mi
3:53 PM91 °FSunny.10 mph20%30.04 "Hg10 mi
2:53 PM90 °FSunny.5 mph18%30.06 "Hg10 mi
1:53 PM91 °FSunny.5 mph19%30.06 "Hg10 mi
12:53 PM88 °FSunny.7 mph23%30.07 "Hg10 mi
11:53 AM84 °FSunny.5 mph32%30.11 "Hg10 mi
10:53 AM77 °FSunny.3 mph37%30.14 "Hg10 mi
9:53 AM72 °FSunny.3 mph46%30.16 "Hg10 mi
8:53 AM68 °FSunny.No wind47%30.16 "Hg10 mi
7:53 AM65 °FSunny.No wind51%30.17 "Hg10 mi
6:53 AM60 °FClear.No wind60%30.16 "Hg10 mi
5:53 AM60 °FClear.No wind58%30.16 "Hg10 mi
4:53 AM61 °FClear.No wind58%30.13 "Hg10 mi
3:53 AM62 °FClear.No wind56%30.12 "Hg10 mi
2:53 AM63 °FClear.5 mph54%30.13 "Hg10 mi
1:53 AM66 °FClear.7 mph49%30.12 "Hg10 mi
12:53 AM69 °FClear.No wind44%30.12 "Hg10 mi
11:53 PM
Jul 29
70 °FClear.No wind44%30.12 "Hg10 mi
10:53 PM73 °FClear.No wind40%30.09 "Hg10 mi
9:53 PM74 °FSunny.3 mph40%30.10 "Hg10 mi
8:53 PM80 °FSunny.No wind31%30.07 "Hg10 mi
7:53 PM79 °FScattered clouds.6 mph39%30.08 "Hg10 mi
Weather by CustomWeather, © 2014

See weather overviewHow to use our weather pages